This tool has been used to add a total of 19,785 depicts statements.

174 users have tried this tool.

7,237 artworks have been cataloged.

username artwork depicts when
Edward Bishop Jan van Malderen (Q28797555) [wikidata] Johannes Malderus (Q2690643) 2019 Oct 04 14:00
Edward Portrait of Ferdinand Vintsingerode (1770-1818) (Q27966827) [wikidata] Ferdinand von Wintzingerode (Q64442) 2019 Oct 04 13:59
Edward Portrait of Pyotr K. Suchtelen (1751-1836) (1st) (Q21723522) [wikidata] Jan Pieter van Suchtelen (Q2106584) 2019 Oct 04 13:59
Edward Alexander Nowell (Q23928548) [wikidata] Alexander Nowell (Q4719765) 2019 Oct 04 13:59
Edward John Ambrose Lloyd (Q64686238) [wikidata] John Ambrose Lloyd (Q13129318) 2019 Oct 04 13:59
Edward Portrait of Dmitry D. Kuruta (1769-1833) (Q27978801) [wikidata] Dimitrij Dmitrijevič Kuruta (Q887592) 2019 Oct 04 13:59
Edward Frederick William Ernest, Count of Schaumburg-Lippe (1724-77) (Q28037126) [wikidata] William, Count of Schaumburg-Lippe (Q566099) 2019 Oct 04 13:59
Edward Portrait of Fyodor V. (Dietrich Jacob) Tijl van Seraskerken (1771-1826) (Q27974221) [wikidata] Diederik Tuyll van Serooskerken (Q460801) 2019 Oct 04 13:59
Edward Sir Robert Henry Dick (Q28049448) [wikidata] Robert Henry Dick (Q2157540) 2019 Oct 04 13:58
Edward Mrs Campbell McInnes (later Angela Thirkell) (Q20418845) [wikidata] Angela Thirkell (Q4762571) 2019 Oct 04 13:58
Edward Portrait of Apollon S. Zhemchuzhnikov (1764-1840) (Q21725322) [wikidata] Apolo Stepanovič Žemčužnikovas (Q4179313) 2019 Oct 04 13:58
Edward Portrait of Mrs. Asher B. Wertheimer (Q22087702) [wikidata] Flora Wertheimer (Q22087698) 2019 Oct 04 13:58
Edward Rosslyn Erskine Wemyss, Baron Wester Wemyss (Q28051272) [wikidata] Rosslyn Wemyss, 1st Baron Wester Wemyss (Q1225006) 2019 Oct 04 13:58
Edward Self-Portrait (Q50752044) [wikidata] Štefan Straka (Q50812825) 2019 Oct 04 13:58
Edward John Wigan (Q28045196) [wikidata] John Wigan (Q14945473) 2019 Oct 04 13:57
Edward Solomon White Roberts (Q47509797) [wikidata] Solomon White Roberts (Q63458070) 2019 Oct 04 13:57
Edward Portrait of Nikolai D. Olsufyev (1779-1817) (3rd) (Q21730754) [wikidata] Nikolaj Dimitrijevič Olsufjev (Q4334020) 2019 Oct 04 13:57
Edward Portrait of Grigory M. Berg (1765-1833 or 1838) (1st) (Q21741527) [wikidata] Gregor Berg (Q1976134) 2019 Oct 04 13:57
Edward Portrait of Ivan N. (Magnus Gustav) Essen (1758/59-1813) (Q21727741) [wikidata] Ivan Essen (Q2996594) 2019 Oct 04 13:57
Edward Frances Trollope (Q28049163) [wikidata] Frances Trollope (Q271961) 2019 Oct 04 13:57
Edward Dr. Adolfo Brunel (Q58840973) [wikidata] Adolphe Brunel (Q23758993) 2019 Oct 04 13:56
Edward Adolf Fredrik Lindblad, 1801-1878 (Q18580133) [wikidata] Adolf Fredrik Lindblad (Q361622) 2019 Oct 04 13:56
Edward Battle of Phungdo (Q55496508) [wikidata] Battle of Pungdo (Q701890) 2019 Oct 04 13:56
Edward Sir David Davies (1792-1865) (Q64686506) [wikidata] David Davies (Q20732901) 2019 Oct 04 13:55
Edward Henrietta Boyle, Countess of Rochester (1646-1687) (Q28029362) [wikidata] Henrietta Hyde, Countess of Rochester (Q5715966) 2019 Oct 04 13:55
Edward Sir Galbraith Lowry Cole (Q28049242) [wikidata] Lowry Cole (Q346470) 2019 Oct 04 13:43
Edward Self-portrait (Q67204508) [wikidata] Hermenegildo Bustos (Q16574734) 2019 Oct 04 13:43
Edward A Running Boy. Marcus Holst von Schmidten (Q20540218) [wikidata] Marcus Holst von Schmidten (Q12325936) 2019 Oct 04 13:42
Edward Retrato de Luiz Edmundo (Q62064663) [wikidata] Luís Edmundo (Q10321399) 2019 Oct 04 13:42
Edward Sir Alexander Temple (Q23760200) [wikidata] Alexander Temple (Q23018828) 2019 Oct 04 13:42
Edward Erzherzogin Claudia Felicitas (1653-1676) (Q27981690) [wikidata] Claudia Felicitas of Austria (Q93541) 2019 Oct 04 13:41
Jane023 The Lord is My Shepherd (Q7748439) [wikidata] reading (Q199657) 2019 Oct 04 13:04
Jane023 The Lord is My Shepherd (Q7748439) [wikidata] sitting (Q1144593) 2019 Oct 04 13:04
Jane023 The Lord is My Shepherd (Q7748439) [wikidata] man (Q8441) 2019 Oct 04 13:04
Jane023 Ah'-sho-cole, Rotten Foot, a Noted Warrior (Q20441304) [wikidata] man (Q8441) 2019 Oct 04 13:02
Jane023 Ah'-sho-cole, Rotten Foot, a Noted Warrior (Q20441304) [wikidata] hatchet (Q672890) 2019 Oct 04 13:02
Edward Sir Henry Murray (Q28049314) [wikidata] Henry Murray (Q18109124) 2019 Oct 04 12:54
Edward Richard Boyle, 1st Earl of Burlington and 2nd Earl of Cork (Q28043724) [wikidata] Richard Boyle, 1st Earl of Burlington (Q5590389) 2019 Oct 04 12:54
Edward Sir Matthew Wood, 1st Bt (Q28048776) [wikidata] Sir Matthew Wood, 1st Baronet (Q7528319) 2019 Oct 04 12:54
Jane023 Tavern Scene (Q20277836) [wikidata] tavern (Q154250) 2019 Oct 04 12:53
Edward Portret van paus Adrianus VI (1459-1523) (Q24066074) [wikidata] Adrian VI (Q57087) 2019 Oct 04 12:52
Edward Self-portrait (Q59827194) [wikidata] Llorenç Casanova i Ruiz (Q4892860) 2019 Oct 04 12:52
Edward Portrait of Filippo (Filipp Osipovich) Paulucci (1779-1849) (Q27966328) [wikidata] Philip Osipovich Paulucci (Q2621033) 2019 Oct 04 12:52
Edward Sir Francis Beaufort (Q28049896) [wikidata] Francis Beaufort (Q21186) 2019 Oct 04 12:52
Edward Portrait of Ivan Z. Yershov (1777/78-1852) (Q27978499) [wikidata] Ivan Zaharovič Jeršov (Q4176889) 2019 Oct 04 12:52
Edward Portrait of Candido dos Reis (Q60312740) [wikidata] Carlos Cândido dos Reis (Q7675563) 2019 Oct 04 12:52
Edward Mrs. George Ingersoll (Martha Goldthwaite) (Q19925112) [wikidata] Martha Goldthwaite Ingersoll (Q59442938) 2019 Oct 04 12:51
Edward Portrait of Manuel García de la Prada (Q52315977) [wikidata] Manuel García de la Prada (Q16598341) 2019 Oct 04 12:51
Edward Mrs Carl Meyer and her Children (Q18686927) [wikidata] Adele Meyer (Q18526314) 2019 Oct 04 12:51
Edward Saint Gaudioso (Q18686042) [wikidata] Gaudiosus of Naples (Q1621770) 2019 Oct 04 12:51
Edward Francis Turner (Q28044707) [wikidata] Francis Turner (Q5482634) 2019 Oct 04 12:51
Edward Portrait of Sergey N. Ushakov (1776-1814) (2nd) (Q21716200) [wikidata] Pavel Nikolajevič Ušakov (Q4479555) 2019 Oct 04 12:51
Edward Portrait of Denis V. Davydov (1784-1839) (Q21725193) [wikidata] Denis Davydov (Q544983) 2019 Oct 04 12:50
Edward Georg Adlersparre, 1760-1835, Count, Major General, Cabinet Minister (Q18579400) [wikidata] Georg Adlersparre (Q918652) 2019 Oct 04 12:50
Edward Captain Philemon Pownall (Q29964443) [wikidata] Philemon Pownoll (Q648900) 2019 Oct 04 12:50
Edward Elsa Galafrés (Q28006846) [wikidata] Elsa Marguérite Galafrés (Q21777891) 2019 Oct 04 12:50
Edward Portrait of Alexander P. Kutuzov (1777-1817) (Q27976255) [wikidata] Aleksander Petrovič Kutuzov (Q4249618) 2019 Oct 04 12:49
Edward Johannes Gijsbert Vogel (1828-1915), Painter (Q18607808) [wikidata] Johannes Gijsbert Vogel (Q18577260) 2019 Oct 04 12:49
Edward Sir Edward Nicholas (Q28044170) [wikidata] Edward Nicholas (Q5344618) 2019 Oct 04 12:49
Edward Portrait of Pyotr M. Kaptsevich (1772-1840) (Q21729763) [wikidata] Peter Mikhailovich Kaptzevich (Q1235465) 2019 Oct 04 12:49
Edward James Hall Nasmyth (Q28050301) [wikidata] James Nasmyth (Q240633) 2019 Oct 04 12:47
Edward Bernhard von Liewen, 1651-1703 (Q18579354) [wikidata] Bernhard von Liewen (Q5950991) 2019 Oct 04 12:47
Edward Loammi Baldwin (Q47508820) [wikidata] Loammi Baldwin, Jr. (Q6663439) 2019 Oct 04 12:47
Edward Battle of the Dogs (Q12849301) [wikidata] dog-baiting (Q38482) 2019 Oct 04 12:47
Edward Battle of Ostroleka (Q16701450) [wikidata] Battle of Ostrołęka (Q2237094) 2019 Oct 04 12:46
Edward Jonathan Tyers and his family (Q28045330) [wikidata] Jonathan Tyers (Q16004457) 2019 Oct 04 12:43
Edward Portrait of Andrey S. Umanets (1762 - after 1828) (Q21729688) [wikidata] Andrej Semjonovič Umanec (Q4475275) 2019 Oct 04 12:43
Edward Francisco Tadeo Calomarde (Q59825620) [wikidata] Francisco Tadeo Calomarde y Arría (Q1442231) 2019 Oct 04 12:43
Edward Odsiecz smoleńska (obraz Juliusza Kossaka) (Q11796334) [wikidata] Polish–Muscovite War (Q1044829) 2019 Oct 04 12:36
Edward John Fawcett (Q28049039) [wikidata] John Fawcett (Q6232819) 2019 Oct 04 12:35
Edward Antonio Ros Olano ministro de Comercio Instrucción y Obras Públicas (Q59826811) [wikidata] Antonio Ros de Olano (Q5655012) 2019 Oct 04 12:35
Gamaliel Aurora Leigh’s Dismissal of Romney (‘The Tryst’) (Q28545303) [wikidata] woman (Q467) 2019 Oct 04 12:27
Gamaliel Aurora Leigh’s Dismissal of Romney (‘The Tryst’) (Q28545303) [wikidata] man (Q8441) 2019 Oct 04 12:27
Gamaliel Aurora Leigh’s Dismissal of Romney (‘The Tryst’) (Q28545303) [wikidata] tree (Q10884) 2019 Oct 04 12:27
Gamaliel Aurora Leigh’s Dismissal of Romney (‘The Tryst’) (Q28545303) [wikidata] dress (Q200539) 2019 Oct 04 12:27
Gamaliel Aurora Leigh’s Dismissal of Romney (‘The Tryst’) (Q28545303) [wikidata] hat (Q80151) 2019 Oct 04 12:27
Gamaliel Aurora Leigh’s Dismissal of Romney (‘The Tryst’) (Q28545303) [wikidata] book (Q571) 2019 Oct 04 12:27
Gamaliel Aurora Leigh’s Dismissal of Romney (‘The Tryst’) (Q28545303) [wikidata] poet (Q49757) 2019 Oct 04 12:27
Gamaliel April Love (Q1523473) [wikidata] April (Q118) 2019 Oct 04 12:26
Gamaliel April Love (Q1523473) [wikidata] woman (Q467) 2019 Oct 04 12:26
Gamaliel April Love (Q1523473) [wikidata] man (Q8441) 2019 Oct 04 12:26
Gamaliel April Love (Q1523473) [wikidata] climbing plant (Q917284) 2019 Oct 04 12:26
Gamaliel April Love (Q1523473) [wikidata] dress (Q200539) 2019 Oct 04 12:26
Gamaliel April Love (Q1523473) [wikidata] scarf (Q191022) 2019 Oct 04 12:26
Gamaliel The Gallery of HMS Calcutta (Portsmouth) (Q17189312) [wikidata] deck (Q208123) 2019 Oct 04 12:25
Gamaliel The Gallery of HMS Calcutta (Portsmouth) (Q17189312) [wikidata] port (Q44782) 2019 Oct 04 12:25
Gamaliel The Gallery of HMS Calcutta (Portsmouth) (Q17189312) [wikidata] railing (Q3095365) 2019 Oct 04 12:25
Gamaliel The Gallery of HMS Calcutta (Portsmouth) (Q17189312) [wikidata] chair (Q15026) 2019 Oct 04 12:25
Gamaliel The Gallery of HMS Calcutta (Portsmouth) (Q17189312) [wikidata] dress (Q200539) 2019 Oct 04 12:25
Gamaliel The Gallery of HMS Calcutta (Portsmouth) (Q17189312) [wikidata] hand fan (Q193220) 2019 Oct 04 12:25
Gamaliel The Gallery of HMS Calcutta (Portsmouth) (Q17189312) [wikidata] man (Q8441) 2019 Oct 04 12:25
Gamaliel The Gallery of HMS Calcutta (Portsmouth) (Q17189312) [wikidata] woman (Q467) 2019 Oct 04 12:25
Gamaliel The Gallery of HMS Calcutta (Portsmouth) (Q17189312) [wikidata] naval officer (Q10669499) 2019 Oct 04 12:24
Gamaliel The Vision of Zacharias (Q19858207) [wikidata] carpet (Q163446) 2019 Oct 04 12:23
Gamaliel The Vision of Zacharias (Q19858207) [wikidata] angel (Q235113) 2019 Oct 04 12:23
Gamaliel The Vision of Zacharias (Q19858207) [wikidata] Zechariah (Q139464) 2019 Oct 04 12:23
Fuzheado Bear hunting (Q19928526) [wikidata] dog (Q144) 2019 Oct 04 12:23
Fuzheado Bear hunting (Q19928526) [wikidata] assault (Q81672) 2019 Oct 04 12:23
Fuzheado Bear hunting (Q19928526) [wikidata] bear (Q30090244) 2019 Oct 04 12:23
Gamaliel The Anxiety of Saint Joseph (Q19858214) [wikidata] lumber (Q1370714) 2019 Oct 04 12:22